Weather History for Salem, IL

Change the Weather History Date:

Friday, January 24, 2014

  Actual Average Record
Temperature  
Mean Temperature 17 °F -  
Max Temperature 30 °F 42 °F 68 °F (1967)
Min Temperature 4 °F 23 °F -12 °F (1963)
Degree Days  
Heating Degree Days 48    
Moisture  
Dew Point 5 °F    
Average Humidity 58    
Maximum Humidity 84    
Minimum Humidity 42    
Precipitation  
Precipitation 0.00 in - - ()
Sea Level Pressure  
Sea Level Pressure 30.29 in    
Wind  
Wind Speed 11 mph (SSW)    
Max Wind Speed 29 mph    
Max Gust Speed 39 mph    
Visibility 10 miles    
Events      
Averages and records for this station are not official NWS values.
T = Trace of Precipitation, MM = Missing Value Source: NWS Daily Summary

Daily Weather History Graph

Daily Weather History Graph

Search for Another Location

Airport:

Trip Planner

Search our weather history database for the weather conditions in past years. The results will help you decide how hot, cold, wet, or windy it might be!

Date:

Astronomy

Jan. 24, 2014 Rise Set
Actual Time 7:07 AM CST 5:08 PM CST
Civil Twilight 6:39 AM CST 5:37 PM CST
Nautical Twilight 6:06 AM CST 6:09 PM CST
Astronomical Twilight 5:35 AM CST 6:40 PM CST
Moon 12:35 AM CST (1/24) 11:26 AM CST (1/24)
Length of Visible Light 10h 57m
Length of Day
10h 00m
Last Quarter, 44% of the Moon is Illuminated
Jan 24
Last Quarter
Jan 30
New
Feb 6
First Quarter
Feb 14
Full
Feb 22
Last Quarter

Hourly Weather History & Observations

Time (CST) Temp. Windchill Dew Point Humidity Pressure Visibility Wind Dir Wind Speed Gust Speed Precip Events Conditions
12:15 AM 4.3 °F - 0.1 °F 83% 30.70 in 10.0 mi Calm Calm - N/A   Clear
12:35 AM 5.2 °F - 1.2 °F 84% 30.69 in 10.0 mi Calm Calm - N/A   Clear
12:55 AM 5.2 °F -1.9 °F 0.9 °F 82% 30.69 in 10.0 mi SW 3.5 mph - N/A   Clear
1:15 AM 5.2 °F -1.9 °F 0.7 °F 82% 30.68 in 10.0 mi SW 3.5 mph - N/A   Clear
1:35 AM 5.0 °F -4.1 °F 0.1 °F 80% 30.68 in 10.0 mi SW 4.6 mph - N/A   Clear
1:55 AM 5.2 °F -5.4 °F 0.1 °F 80% 30.68 in 10.0 mi SW 5.8 mph - N/A   Clear
2:15 AM 5.9 °F -4.5 °F 0.7 °F 79% 30.67 in 10.0 mi SW 5.8 mph - N/A   Clear
2:35 AM 5.5 °F -3.4 °F 0.5 °F 80% 30.66 in 10.0 mi SSW 4.6 mph - N/A   Clear
2:55 AM 5.0 °F -2.1 °F 0.3 °F 81% 30.66 in 10.0 mi South 3.5 mph - N/A   Clear
3:15 AM 5.0 °F -4.1 °F 0.5 °F 82% 30.64 in 10.0 mi South 4.6 mph - N/A   Clear
3:35 AM 5.0 °F -2.1 °F 0.3 °F 81% 30.64 in 10.0 mi South 3.5 mph - N/A   Clear
3:55 AM 5.0 °F -4.1 °F 0.3 °F 81% 30.63 in 10.0 mi South 4.6 mph - N/A   Clear
4:15 AM 5.4 °F -5.2 °F 0.3 °F 80% 30.62 in 10.0 mi South 5.8 mph - N/A   Clear
4:35 AM 5.5 °F -5.0 °F 0.3 °F 79% 30.61 in 10.0 mi South 5.8 mph - N/A   Clear
4:55 AM 5.7 °F -4.8 °F -0.4 °F 76% 30.60 in 10.0 mi South 5.8 mph - N/A   Clear
5:15 AM 5.7 °F -6.1 °F -0.4 °F 76% 30.59 in 10.0 mi South 6.9 mph - N/A   Clear
5:35 AM 5.9 °F -5.8 °F -0.2 °F 76% 30.58 in 10.0 mi South 6.9 mph - N/A   Clear
5:55 AM 6.3 °F -6.5 °F 0.1 °F 76% 30.57 in 10.0 mi SSW 8.1 mph - N/A   Clear
6:15 AM 6.3 °F -6.5 °F -0.2 °F 75% 30.57 in 10.0 mi SSW 8.1 mph - N/A   Clear
6:35 AM 6.6 °F -7.1 °F 0.1 °F 75% 30.56 in 10.0 mi SSW 9.2 mph - N/A   Clear
6:55 AM 6.8 °F -6.9 °F 0.3 °F 75% 30.55 in 10.0 mi SSW 9.2 mph - N/A   Clear
7:15 AM 6.8 °F -5.9 °F -0.0 °F 74% 30.55 in 10.0 mi SSW 8.1 mph - N/A   Clear
7:35 AM 7.2 °F -6.4 °F 0.3 °F 74% 30.55 in 10.0 mi SSW 9.2 mph - N/A   Clear
7:55 AM 8.6 °F -6.3 °F 0.7 °F 70% 30.53 in 10.0 mi SSW 11.5 mph - N/A   Clear
8:15 AM 10.2 °F -6.9 °F 1.8 °F 69% 30.53 in 10.0 mi SSW 16.1 mph 20.7 mph N/A   Clear
8:35 AM 11.1 °F -3.9 °F 1.9 °F 67% 30.52 in 10.0 mi SSW 12.7 mph - N/A   Clear
8:55 AM 12.6 °F -3.3 °F 2.8 °F 65% 30.51 in 10.0 mi SSW 15.0 mph 23.0 mph N/A   Clear
9:15 AM 14.0 °F -3.4 °F 2.7 °F 61% 30.50 in 10.0 mi SSW 19.6 mph 31.1 mph N/A   Clear
9:35 AM 15.1 °F -0.1 °F 3.4 °F 60% 30.48 in 10.0 mi SSW 15.0 mph 19.6 mph N/A   Clear
9:55 AM 16.0 °F 0.6 °F 4.5 °F 60% 30.48 in 10.0 mi SSW 16.1 mph 24.2 mph N/A   Clear
10:15 AM 17.2 °F 1.2 °F 4.5 °F 57% 30.47 in 10.0 mi SSW 18.4 mph 23.0 mph N/A   Clear
10:35 AM 18.3 °F 2.6 °F 3.9 °F 53% 30.45 in 10.0 mi SSW 18.4 mph 24.2 mph N/A   Clear
10:55 AM 19.6 °F 2.7 °F 4.1 °F 51% 30.42 in 10.0 mi SSW 23.0 mph - N/A   Clear
11:15 AM 20.3 °F 5.2 °F 4.3 °F 50% 30.39 in 10.0 mi SSW 18.4 mph 25.3 mph N/A   Clear
11:35 AM 20.5 °F 4.6 °F 4.6 °F 50% 30.38 in 10.0 mi SSW 20.7 mph 27.6 mph N/A   Clear
11:55 AM 22.3 °F 6.6 °F 5.9 °F 50% 30.35 in 10.0 mi South 21.9 mph 26.5 mph N/A   Clear
12:15 PM 22.8 °F 7.7 °F 5.9 °F 48% 30.32 in 10.0 mi SSW 20.7 mph 25.3 mph N/A   Clear
12:35 PM 24.1 °F 8.0 °F 6.8 °F 48% 30.29 in 10.0 mi SSW 25.3 mph - N/A   Clear
12:55 PM 24.4 °F 10.2 °F 6.4 °F 46% 30.28 in 10.0 mi SSW 19.6 mph 27.6 mph N/A   Clear
1:15 PM 25.9 °F 12.5 °F 7.5 °F 46% 30.25 in 10.0 mi SSW 18.4 mph 26.5 mph N/A   Clear
1:35 PM 26.1 °F 11.0 °F 7.2 °F 45% 30.21 in 10.0 mi SSW 24.2 mph 31.1 mph N/A   Clear
1:55 PM 25.7 °F 12.7 °F 6.6 °F 44% 30.20 in 10.0 mi SSW 17.3 mph 29.9 mph N/A   Clear
2:15 PM 26.2 °F 11.5 °F 7.0 °F 44% 30.18 in 10.0 mi South 23.0 mph - N/A   Clear
2:35 PM 27.1 °F 13.1 °F 7.3 °F 43% 30.16 in 10.0 mi SSW 21.9 mph 27.6 mph N/A   Clear
2:55 PM 26.8 °F 12.9 °F 6.6 °F 42% 30.13 in 10.0 mi SSW 20.7 mph 31.1 mph N/A   Clear
3:15 PM 27.0 °F 12.8 °F 7.0 °F 43% 30.11 in 10.0 mi South 21.9 mph 28.8 mph N/A   Clear
3:35 PM 26.6 °F 11.7 °F 6.8 °F 43% 30.08 in 10.0 mi South 24.2 mph 32.2 mph N/A   Clear
3:55 PM 27.3 °F 13.3 °F 7.0 °F 42% 30.08 in 10.0 mi South 21.9 mph 32.2 mph N/A   Clear
4:15 PM 27.1 °F 12.7 °F 6.8 °F 42% 30.05 in 10.0 mi South 23.0 mph 34.5 mph N/A   Clear
4:35 PM 26.8 °F 12.3 °F 6.4 °F 42% 30.03 in 10.0 mi South 23.0 mph 28.8 mph N/A   Clear
4:55 PM 26.8 °F 11.9 °F 6.4 °F 42% 30.02 in 10.0 mi South 24.2 mph 31.1 mph N/A   Clear
5:15 PM 26.6 °F 11.4 °F 6.4 °F 42% 30.01 in 10.0 mi SSW 25.3 mph - N/A   Clear
5:35 PM 26.6 °F 12.4 °F 6.6 °F 43% 30.01 in 10.0 mi SSW 21.9 mph 34.5 mph N/A   Clear
5:55 PM 26.2 °F 11.9 °F 6.8 °F 44% 29.99 in 10.0 mi SSW 21.9 mph 31.1 mph N/A   Clear
6:15 PM 26.1 °F 12.3 °F 7.2 °F 45% 30.00 in 10.0 mi SSW 19.6 mph 26.5 mph N/A   Clear
6:35 PM 26.1 °F 11.3 °F 7.9 °F 46% 29.99 in 10.0 mi SSW 23.0 mph 29.9 mph N/A   Clear
6:55 PM 26.4 °F 11.5 °F 9.0 °F 48% 29.98 in 10.0 mi SSW 24.2 mph 29.9 mph N/A   Clear
7:15 PM 26.6 °F 12.7 °F 9.1 °F 48% 29.96 in 10.0 mi SSW 20.7 mph 31.1 mph N/A   Clear
7:35 PM 26.8 °F 12.3 °F 9.5 °F 48% 29.96 in 10.0 mi SSW 23.0 mph 31.1 mph N/A   Scattered Clouds
7:55 PM 27.3 °F 13.3 °F 9.3 °F 47% 29.93 in 10.0 mi SSW 21.9 mph 29.9 mph N/A   Overcast
8:15 PM 27.9 °F 12.3 °F 9.0 °F 45% 29.93 in 10.0 mi SSW 28.8 mph 36.8 mph N/A   Overcast
8:35 PM 27.9 °F 12.8 °F 10.0 °F 47% 29.94 in 10.0 mi SW 26.5 mph 36.8 mph N/A   Overcast
8:55 PM 28.2 °F 13.6 °F 9.7 °F 46% 29.91 in 10.0 mi SW 25.3 mph 33.4 mph N/A   Overcast
9:15 PM 28.4 °F 14.7 °F 9.9 °F 46% 29.89 in 10.0 mi SSW 21.9 mph 34.5 mph N/A   Overcast
9:35 PM 28.4 °F 14.4 °F 9.7 °F 46% 29.88 in 10.0 mi SSW 23.0 mph 39.1 mph N/A   Mostly Cloudy
9:55 PM 28.8 °F 14.6 °F 9.5 °F 45% 29.87 in 10.0 mi SSW 24.2 mph 34.5 mph N/A   Scattered Clouds
10:15 PM 29.1 °F 15.1 °F 9.5 °F 44% 29.86 in 10.0 mi SSW 24.2 mph 29.9 mph N/A   Overcast
10:35 PM 29.1 °F 15.7 °F 10.0 °F 45% 29.85 in 10.0 mi SSW 21.9 mph 27.6 mph N/A   Overcast
10:55 PM 29.3 °F 16.2 °F 10.2 °F 45% 29.84 in 10.0 mi SW 20.7 mph 29.9 mph N/A   Overcast
11:15 PM 29.8 °F 17.7 °F 9.5 °F 43% 29.83 in 10.0 mi SW 18.4 mph 24.2 mph N/A   Mostly Cloudy
11:35 PM 30.7 °F 18.1 °F 10.0 °F 42% 29.80 in 10.0 mi SSW 20.7 mph 25.3 mph N/A   Mostly Cloudy
11:55 PM 30.7 °F 18.8 °F 9.9 °F 42% 29.79 in 10.0 mi SSW 18.4 mph 28.8 mph N/A   Overcast